Regional Weather Roundup
Issued by NWS Midland/Odessa, TX

Skip options and go directly to product.
Home | Oldest Version | Next Version | Current Version | All | Text Only | Save Text | Print | Product List | Glossary On

Skip product version selection by date and time.   
111
ASUS44 KMAF 270301
RWRMAF
MIDLAND AREA WEATHER ROUNDUP
NATIONAL WEATHER SERVICE MIDLAND TX
1000 PM CDT SUN JUL 26 2015

...IN SOUTHWEST TEXAS AND SOUTHEAST NEW MEXICO...

CITY           SKY/WX    TMP DP  RH WIND       PRES   REMARKS
ALPINE         MOCLDY    82  52  35 SE7       30.08R
ANDREWS        FAIR      87  51  28 SE6       29.93R
ARTESIA        CLEAR     90  50  25 S8        29.92R
BIG SPRING     CLEAR     90  58  33 E9        29.92R
CARLSBAD       CLEAR     88  49  25 S7        29.89R
DRYDEN           N/A     93  64  38 SE8       29.88R
FORT STOCKTON  PTCLDY    91  61  36 SE14G22   29.91R
GUAD PASS      MOCLDY    83  50  31 SW3       30.11R
HOBBS          CLEAR     86  50  28 SE8       29.96R
MARFA          PTCLDY    79  52  38 CALM      30.07R
MIDLAND AIRPK  CLEAR     96  55  25 SE12G17   29.90R
MIDLAND INTL   PTCLDY    94  57  28 SE12      29.90R
ODESSA         MOCLDY    94  55  26 SE13      29.91R
PECOS          PTCLDY    96  54  24 E9        29.84S
PRESIDIO       FAIR      95  52  22 CALM      29.86R
SEMINOLE       CLEAR     85  52  32 E8        29.95R
SNYDER         CLEAR     87  64  46 E7        29.91S
WINK           CLEAR     95  53  24 SE9       29.86R
$$
...OTHER STATIONS IN TEXAS...

CITY           SKY/WX    TMP DP  RH WIND       PRES   REMARKS
ABILENE        CLEAR     88  66  48 SE14      29.90R
AMARILLO       CLEAR     82  61  48 SE9       29.97R
AUSTIN         PTCLDY    85  70  60 SE10      29.87R
BROWNSVILLE    PTCLDY   N/A N/A N/A SE15      29.89R
CORPUS CHRISTI MOCLDY    84  77  79 SE14      29.89R
DALLAS FTW     PTCLDY    89  63  41 SE8       29.86R
DEL RIO        CLEAR     93  65  39 E7        29.82R
EL PASO        MOCLDY    90  52  27 S7        29.94R
HOUSTON INT    MOCLDY    88  74  63 S7        29.90R
LUBBOCK        CLEAR     82  62  50 SE10      29.95S
SAN ANGELO     MOCLDY    93  64  38 SE9       29.87R
SAN ANTONIO    PTCLDY    89  71  55 E13       29.89R
WACO           CLEAR     87  68  52 S8        29.88R
WICHITA FALLS  NOT AVBL
$$
...OTHER LOCATIONS IN NEW MEXICO...

CITY           SKY/WX    TMP DP  RH WIND       PRES   REMARKS
ALAMAGORDO     CLOUDY    84  54  34 SE31      29.99R THUNDER
ALBUQUERQUE    TSTM      71  63  75 NW10      30.15R
CANNON AFB     CLEAR     81  58  44 SE13      30.00R
CLOVIS         CLEAR     82  57  42 SE14      30.01S
HOLLOMAN AFB   NOT AVBL
ROSWELL        CLEAR     89  49  25 S8        29.91R
RUIDOSO          N/A    N/A N/A N/A MISG        N/A
SANTA FE       LGT RAIN  69  55  60 NW16G25   30.18R
TRUTH OR CONSE CLEAR     83  51  33 NW18G28   30.03R
TUCUMCARI      CLEAR     86  54  33 S10       29.95R
$$

USA.gov is the U.S. government's official web portal to all federal, state and local government web resources and services.